Terug naar catalogus

STARLINK-37188

ActiefCommunicatieSSO
NORAD 68404·PAYLOAD·🇺🇸 United States

Gelanceerd Mar 26, 2026 vanaf Vandenberg Space Force Base

Loading…

Volgende Passages (komende 24 uur)

TLE

VersSource: CelesTrak SupGP

Epoch: Sep 15, 2026, 03:49 UTC

1 68404C 26063AA  26258.15951389 -.00018584  00000+0 -57688-3 0  2585
2 68404  97.2855  39.1722 0001206  86.7562 318.3089 15.33450162    10

Volg STARLINK-37188 in realtime met AllMySat

Download on the App Store